Weather in Kurdyukovskaya

Russia / Chechen Republic     43°41′27″N   46°26′53″E
temp.,
°C
wind,
m/s
gust,
m/s
humid.,
%
clouds,
%
prec.,
mm/h
press.,
hPa
HPBL,
m
21 april, wed
wed2100:00+13se1181100 0.1 101010
03:00+14w4881100 0.3 1011186
06:00+14wnw51180100 0.0 1013507
09:00+16wnw7971100 0.0 1016980
12:00+16nw81060100 0.0 1017781
15:00+15wnw7963100 0.1 1019908
18:00+14w4870100 0.5 1021357
21:00+12wsw4673100 0.6 1022161
22 april, thu
thu2200:00+11w3681100 0.0 1021129
03:00+12wnw3580100 0.1 1021191
06:00+12wnw3680100 0.0 1021222
09:00+14nw4573100 0.0 1022454
12:00+15nnw5666100 0.0 1022796
15:00+15nnw4562100 0.0 1022840
18:00+13nnw3474100 0.0 1022163
21:00+12nnw2477100 0.0 1022136
23 april, fri
fri2300:00+12nnw3579100 0.0 1020163
03:00+12nw3679100 0.0 1020242
06:00+11nw5994100 0.4 1022394
09:00+12nw4783100 0.5 1022451
12:00+12wnw5779100 0.0 1023616
15:00+17wnw465578 0.1 10221488
18:00+15nnw34650 0.0 102277
21:00+11n11790 0.0 102110
24 april, sat
sat2400:00+10sse338598 0.0 102021
03:00+9se3387100 0.0 101934
06:00+10ene2384100 0.0 101961
09:00+16e3563100 0.0 1019655
12:00+20ese554862 0.0 10181528
15:00+20ese65451 0.0 10181482
18:00+16ese58606 0.0 1019328
21:00+10e388190 0.0 1020162
25 april, sun
sun2500:00+12ese497297 0.0 1019245
03:00+10ese36776 0.0 1019108
06:00+10ese397845 0.0 1019253
09:00+17ese465141 0.0 1018812
12:00+21ese454191 0.0 10161401
15:00+22ese4438100 0.0 10141529
18:00+18ne4658100 0.0 1014157
21:00+12ene2268100 0.0 101415